This is the latest recevied weather packets stored in our database for station/object KC8SWY-15. If no packets are shown the sender has not sent any weather packets the latest 10 day(s).
| Time | Temp. | Humidity | Pressure | Rain* | Wind** | Luminosity | Snow |
|---|---|---|---|---|---|---|---|
| 1778156660 | 5.56° C | 73% | 1015.5 hPa | 0 mm | - | - | - |
| 1778156360 | 5° C | 73% | 1015.4 hPa | 0 mm | - | - | - |
| 1778156060 | 5° C | 74% | 1015.4 hPa | 0 mm | - | - | - |
| 1778155760 | 5° C | 77% | 1015.5 hPa | 0 mm | - | - | - |
| 1778155461 | 4.44° C | 79% | 1015.4 hPa | 0 mm | - | - | - |
| 1778155160 | 3.89° C | 81% | 1015.4 hPa | 0 mm | - | - | - |
| 1778154860 | 3.33° C | 85% | 1015.4 hPa | 0 mm | - | - | - |
| 1778154560 | 2.78° C | 88% | 1015.4 hPa | 0 mm | - | - | - |
| 1778154261 | 2.22° C | 91% | 1015.5 hPa | 0 mm | - | - | - |
| 1778153960 | 1.67° C | 91% | 1015.4 hPa | 0 mm | - | - | - |
| 1778153661 | 1.67° C | 91% | 1015.3 hPa | 0 mm | - | - | - |
| 1778153361 | 1.11° C | 91% | 1015.2 hPa | 0 mm | - | - | - |
| 1778153061 | 1.11° C | 91% | 1015.2 hPa | 0 mm | - | - | - |
| 1778152761 | 0.56° C | 91% | 1015.2 hPa | 0 mm | - | - | - |
| 1778152461 | 0° C | 90% | 1015 hPa | 0 mm | - | - | - |
| 1778152161 | 0° C | 90% | 1014.9 hPa | 0 mm | - | - | - |
| 1778151861 | 0° C | 90% | 1014.9 hPa | 0 mm | - | - | - |
| 1778151561 | 0° C | 89% | 1014.8 hPa | 0 mm | - | - | - |
| 1778151261 | 0° C | 89% | 1014.8 hPa | 0 mm | - | - | - |
| 1778150961 | 0° C | 89% | 1014.8 hPa | 0 mm | - | - | - |
| 1778150661 | 0° C | 89% | 1014.8 hPa | 0 mm | - | - | - |
| 1778150361 | 0° C | 88% | 1014.7 hPa | 0 mm | - | - | - |
| 1778150061 | 0° C | 89% | 1014.7 hPa | 0 mm | - | - | - |
| 1778149761 | 0.56° C | 88% | 1014.6 hPa | 0 mm | - | - | - |
| 1778149461 | 0.56° C | 88% | 1014.6 hPa | 0 mm | - | - | - |
* Rain latest hour (hover to see other rain measurements)
** Current wind speed in m/s (hover to see current wind gust speed)